Weather History for KBOW - October, 2014

Change the Weather History Date:

Tuesday, October 14, 2014

  Actual Average Record
Temperature  
Mean Temperature 79 °F -  
Max Temperature 87 °F 85 °F 92 °F (1932)
Min Temperature 71 °F 64 °F 42 °F (1977)
Cooling Degree Days 14    
Growing Degree Days 29 (Base 50)    
Moisture  
Dew Point 73 °F    
Average Humidity 93    
Maximum Humidity 100    
Minimum Humidity 58    
Precipitation  
Precipitation 0.01 in - - ()
Sea Level Pressure  
Sea Level Pressure 30.00 in    
Wind  
Wind Speed 6 mph (SE)    
Max Wind Speed 16 mph    
Max Gust Speed 23 mph    
Visibility 10 miles    
Events Rain , Thunderstorm    
Averages and records for this station are not official NWS values.
T = Trace of Precipitation, MM = Missing Value Source: NWS Daily Summary

Daily Weather History Graph

Daily Weather History Graph

Search for Another Location

Airport or City:

Trip Planner

Search our weather history database for the weather conditions in past years. The results will help you decide how hot, cold, wet, or windy it might be!

Date:

Astronomy

Oct. 14, 2014 Rise Set
Actual Time 7:26 AM EDT 6:58 PM EDT
Civil Twilight 7:03 AM EDT 7:22 PM EDT
Nautical Twilight 6:36 AM EDT 7:49 PM EDT
Astronomical Twilight 6:08 AM EDT 8:16 PM EDT
Moon No Moon Rise 1:12 PM EDT (10/14)
Length of Visible Light 12h 19m
Length of Day
11h 32m
Waning Gibbous, 61% of the Moon is Illuminated
Oct 14
Waning Gibbous
Oct 15
Last Quarter
Oct 23
New
Oct 30
First Quarter
Nov 6
Full

Hourly Weather History & Observations

Time (EDT) Temp. Heat Index Dew Point Humidity Pressure Visibility Wind Dir Wind Speed Gust Speed Precip Events Conditions
12:15 AM 75.2 °F - 73.4 °F 94% 30.05 in 10.0 mi ESE 6.9 mph - N/A   Mostly Cloudy
12:35 AM 75.2 °F - 73.4 °F 94% 30.05 in 10.0 mi ESE 5.8 mph - N/A   Mostly Cloudy
12:55 AM 73.4 °F - 73.4 °F 100% 30.04 in 10.0 mi ESE 5.8 mph - N/A   Scattered Clouds
1:15 AM 73.4 °F - 73.4 °F 100% 30.04 in 10.0 mi ESE 4.6 mph - N/A   Partly Cloudy
1:35 AM 73.4 °F - 73.4 °F 100% 30.04 in 10.0 mi ESE 4.6 mph - N/A   Mostly Cloudy
1:55 AM 73.4 °F - 73.4 °F 100% 30.04 in 10.0 mi ESE 4.6 mph - N/A   Partly Cloudy
2:15 AM 73.4 °F - 73.4 °F 100% 30.03 in 10.0 mi ESE 5.8 mph - N/A   Scattered Clouds
2:35 AM 73.4 °F - 73.4 °F 100% 30.03 in 10.0 mi ESE 5.8 mph - N/A   Scattered Clouds
2:55 AM 71.6 °F - 71.6 °F 100% 30.02 in 10.0 mi SE 4.6 mph - N/A   Clear
3:15 AM 71.6 °F - 71.6 °F 100% 30.02 in 10.0 mi ESE 6.9 mph - N/A   Clear
3:35 AM 71.6 °F - 71.6 °F 100% 30.01 in 10.0 mi ESE 5.8 mph - N/A   Clear
3:55 AM 71.6 °F - 71.6 °F 100% 30.01 in 10.0 mi ESE 3.5 mph - N/A   Clear
4:15 AM 71.6 °F - 71.6 °F 100% 30.00 in 10.0 mi ESE 5.8 mph - N/A   Clear
4:35 AM 71.6 °F - 71.6 °F 100% 29.99 in 10.0 mi East 4.6 mph - N/A   Clear
4:55 AM 71.6 °F - 71.6 °F 100% 29.99 in 10.0 mi ESE 5.8 mph - N/A   Clear
5:15 AM 71.6 °F - 71.6 °F 100% 30.00 in 10.0 mi ESE 4.6 mph - N/A   Clear
5:35 AM 71.6 °F - 71.6 °F 100% 30.00 in 10.0 mi ESE 5.8 mph - N/A   Clear
5:55 AM 71.6 °F - 71.6 °F 100% 30.00 in 10.0 mi ESE 4.6 mph - N/A   Clear
6:15 AM 71.6 °F - 71.6 °F 100% 30.00 in 10.0 mi ESE 5.8 mph - N/A   Clear
6:35 AM 71.6 °F - 71.6 °F 100% 30.02 in 10.0 mi SE 4.6 mph - N/A   Clear
6:55 AM 71.6 °F - 71.6 °F 100% 30.02 in 10.0 mi ESE 4.6 mph - N/A   Clear
7:15 AM 71.6 °F - 71.6 °F 100% 30.03 in 10.0 mi ESE 5.8 mph - N/A   Clear
7:47 AM 71.6 °F - 71.6 °F 100% 30.03 in 7.0 mi ESE 5.8 mph - N/A   Scattered Clouds
8:50 AM 75.2 °F - 75.2 °F 100% 30.04 in 10.0 mi SE 5.8 mph - N/A   Scattered Clouds
9:50 AM - - 73.4 °F N/A% 30.04 in 10.0 mi SE 9.2 mph - N/A   Partly Cloudy
10:47 AM 84.2 °F 90.9 °F 73.4 °F 70% 30.03 in 10.0 mi SSE 15.0 mph - N/A   Mostly Cloudy
11:47 AM 82.4 °F 87.2 °F 71.6 °F 70% 30.00 in 10.0 mi SSE 16.1 mph - N/A   Mostly Cloudy
12:54 PM 84.2 °F 89.6 °F 71.6 °F 66% 29.97 in 10.0 mi SSE 12.7 mph - N/A   Mostly Cloudy
1:47 PM 84.2 °F 89.6 °F 71.6 °F 66% 29.98 in 10.0 mi South 11.5 mph 19.6 mph N/A   Mostly Cloudy
2:52 PM 84.2 °F 89.6 °F 71.6 °F 66% 29.96 in 10.0 mi South 8.1 mph - N/A   Mostly Cloudy
3:47 PM 87.8 °F 93.8 °F 71.6 °F 58% 29.94 in 10.0 mi South 8.1 mph - N/A   Mostly Cloudy
4:47 PM 82.4 °F 88.2 °F 73.4 °F 74% 29.95 in 10.0 mi SSW 12.7 mph 23.0 mph N/A Thunderstorm Mostly Cloudy
5:35 PM 75.2 °F - 71.6 °F 89% 29.95 in 10.0 mi WSW 4.6 mph - 0.01 in Thunderstorm Clear
5:55 PM 75.2 °F - 73.4 °F 94% 29.95 in 10.0 mi West 5.8 mph - 0.01 in Thunderstorm Clear
6:15 PM 77.0 °F - 73.4 °F 89% 29.94 in 10.0 mi West 3.5 mph - N/A   Clear
6:35 PM 77.0 °F - 73.4 °F 89% 29.96 in 10.0 mi WSW 5.8 mph - N/A Thunderstorm Clear
6:55 PM 75.2 °F - 75.2 °F 100% 29.98 in 10.0 mi SE 4.6 mph - N/A   Scattered Clouds
7:15 PM 75.2 °F - 75.2 °F 100% 29.98 in 10.0 mi SW 3.5 mph - N/A   Mostly Cloudy
7:35 PM 75.2 °F - 71.6 °F 89% 29.98 in 10.0 mi WNW 11.5 mph 16.1 mph N/A Thunderstorm Overcast
7:55 PM 73.4 °F - 73.4 °F 100% 30.00 in 5.0 mi WSW 6.9 mph - N/A Rain Heavy Rain
8:15 PM 73.4 °F - 73.4 °F 100% 29.99 in 10.0 mi Calm Calm - N/A   Scattered Clouds
8:35 PM 71.6 °F - 71.6 °F 100% 29.99 in 10.0 mi Calm Calm - N/A   Clear
8:55 PM 71.6 °F - 71.6 °F 100% 30.00 in 10.0 mi ESE 5.8 mph - N/A   Partly Cloudy
9:15 PM 71.6 °F - - N/A% 30.00 in 10.0 mi SE 5.8 mph - N/A   Partly Cloudy
9:35 PM 71.6 °F - - N/A% 29.99 in 10.0 mi ESE 3.5 mph - N/A   Clear
9:55 PM 71.6 °F - - N/A% 29.98 in 10.0 mi Calm Calm - N/A   Clear
10:15 PM 71.6 °F - - N/A% 29.99 in 10.0 mi SE 5.8 mph - N/A   Clear
10:35 PM 71.6 °F - - N/A% 29.98 in 10.0 mi SE 3.5 mph - N/A   Clear
10:55 PM 71.6 °F - - N/A% 29.99 in 10.0 mi Calm Calm - N/A   Clear
11:15 PM 71.6 °F - - N/A% 30.00 in 10.0 mi Calm Calm - N/A   Clear
11:35 PM 71.6 °F - - N/A% 30.01 in 10.0 mi SE 3.5 mph - N/A   Scattered Clouds
11:55 PM 71.6 °F - - N/A% 30.01 in 10.0 mi SE 4.6 mph - N/A   Mostly Cloudy